Regional Weather Roundup
Issued by NWS

Home | Current Version | Previous Version | Text Only | Print | Product List | Glossary Off
Versions: 1 2 3 4 5 6 7 8 9 10 11 12 13 14 15 16 17 18 19 20 21 22 23 24 25 26 27 28 29 30 31 32 33 34 35 36 37 38 39 40 41 42 43 44 45 46 47 48 49 50

000
ASUS43 KIND 281509
RWRIN

WEATHER ROUNDUP FOR INDIANA
NATIONAL WEATHER SERVICE INDIANAPOLIS IN
1100 AM EDT FRI APR 28 2017

NOTE: "FAIR" INDICATES FEW OR NO CLOUDS BELOW 12,000 FEET WITH NO
SIGNIFICANT WEATHER AND/OR OBSTRUCTIONS TO VISIBILITY.

* - STATION DOES NOT REPORT WEATHER SUCH AS PRECIPITATION OR FOG.

+ - STATION NOT QUALITY CONTROLLED BY THE NATIONAL WEATHER SERVICE.
    USE DATA WITH CAUTION...ESPECIALLY DEWPOINT AND RELATIVE
    HUMIDITY OBSERVATIONS.

INZ001>003-010>013-019-020-281600-
NORTHWEST INDIANA

CITY           SKY/WX    TMP DP  RH WIND       PRES   REMARKS
GARY /AIRPORT/ PTSUNNY   54  45  71 VRB3      29.93F
KNOX *+        CLOUDY    54  27  35 SE6       29.93F
LA PORTE +     CLOUDY    54  45  73 S6        29.93F
MICHIGAN CITY+ PTSUNNY   54  45  71 S6        29.93F
MONTICELLO +   PTSUNNY   53  45  73 S7        29.95R
RENSSELAER +   CLOUDY    52  45  76 SE8       29.96R
VALPARAISO     CLOUDY    55  47  74 S9        29.94S

$$

LMZ046-743>745-281600-
SOUTHERN LAKE MICHIGAN

STATION/POSITION TIME  TEMP    WIND        PRES    WAVE
                       AIR SEA DIR/SP/G            HT
                 (UTC) (F)     (DEG/KT/KT) (MB)    (FT)
BURNS HARBOR     1440   49      20/  8/ 10 1013.5F
MICHIGAN CITY    1440   46      20/ 10/ 10   N/A
5NW MICH CITY    1500   45 46                N/A     1

$$

INZ004-005-014>016-021>024-281600-
NORTH CENTRAL INDIANA

CITY           SKY/WX    TMP DP  RH WIND       PRES   REMARKS
GOSHEN         PTSUNNY   55  42  61 SE7       29.95F
LOGANSPORT +   PTSUNNY   54  45  71 SE10      29.96F
PERU/GRISSOM   CLOUDY    53  47  80 SE10      29.95F
ROCHESTER +    CLOUDY    54  45  71 S7        29.96S
SOUTH BEND     PTSUNNY   54  44  69 S7        29.94F
WARSAW +       CLOUDY    54  43  66 SE9       29.95F

$$

INZ006>009-017-018-025>027-281600-
NORTHEAST INDIANA

CITY           SKY/WX    TMP DP  RH WIND       PRES   REMARKS
ANGOLA *+      SUNNY     55  43  62 S8        29.98S
AUBURN +       MOSUNNY   54  41  62 S6        30.00S
FORT WAYNE     CLOUDY    54  43  66 SE9       29.99F
HUNTINGTON +   CLOUDY    53  44  73 SE8       29.97F
KENDALLVILLE + PTSUNNY   53  43  68 SE10      29.97F

$$

INZ028-029-035-036-043>045-051>053-281600-
WEST CENTRAL INDIANA

CITY           SKY/WX    TMP DP  RH WIND       PRES   REMARKS
CRAWFORDSVL +  CLOUDY    51  48  90 S10       30.00R
GREENCASTLE +  LGT RAIN  50  46  87 SE5       29.98F
LAFAYETTE      CLOUDY    53  47  79 S7        29.98R
TERRE HAUTE    LGT RAIN  51  46  83 SE8       29.99R

$$

INZ030>032-037>040-046>048-054>057-064-065-281600-
CENTRAL INDIANA

CITY           SKY/WX    TMP DP  RH WIND       PRES   REMARKS
CP ATTERBURY + CLOUDY    52  46  82 SE7       29.99F
COLUMBUS       MOSUNNY   54  45  71 SE9       29.99F
FISHERS *+     CLOUDY    50  48  93 SE8       30.00R
FRANKFORT +    CLOUDY    56  49  78 S8        29.99R
GREENWOOD *+   CLOUDY    53  45  74 E6        29.97F
INDIANAPOLIS   CLOUDY    52  46  80 E10       29.96F
-EAGLE CREEK   CLOUDY    52  44  74 SE8       29.98R
KOKOMO +       CLOUDY    53  46  77 SE12      29.98F
MARION +       CLOUDY    52  45  76 SE10      29.99S
MT COMFORT *+  CLOUDY    52  45  76 SE10      30.00R
SHELBYVILLE    CLOUDY    55  44  66 E13       29.96F
ZIONSVILLE +   CLOUDY    51  45  81 SE10      30.00R

$$

INZ033-034-041-042-049-050-058-059-281600-
EAST CENTRAL INDIANA

CITY           SKY/WX    TMP DP  RH WIND       PRES   REMARKS
MUNCIE         CLOUDY    54  44  69 S9        30.00F
RICHMOND +     CLOUDY    50  45  81 SE8       30.03R

$$

INZ060-061-067>069-081>083-085>088-281600-
SOUTHWEST INDIANA

CITY           SKY/WX    TMP DP  RH WIND       PRES   REMARKS
EVANSVILLE     CLOUDY    58  50  75 E9        29.92F
WASHINGTON +   CLOUDY    56  48  73 SE8       29.95R

$$

INZ062-063-066-070>080-084-089>092-281600-
SOUTH CENTRAL AND SOUTHEAST INDIANA

CITY           SKY/WX    TMP DP  RH WIND       PRES   REMARKS
BEDFORD +      CLOUDY    55  48  76 E6        29.96F
BLOOMINGTON    CLOUDY    53  46  77 E9        29.96F
MADISON *+     PTSUNNY   59  48  67 E8        30.00S
NORTH VERNON + CLOUDY    55  46  71 E5        29.99F
SEYMOUR +      CLOUDY    59  48  67 E8        29.98F

$$




USA.gov is the U.S. government's official web portal to all federal, state and local government web resources and services.